Simultaneous Nadir Overpasses (SNOs) Predictions

Prediction of SNOs between NOAA-19 and TERRA Satellite Orbit:

Table of predicted SNOs for the next 14.0 days since TLE Epoch: 5/10/2014
Index Date (NOAA-19) Time (NOAA-19) Lat,Lon (NOAA-19) SZA (NOAA-19 ) Date (TERRA) Time (TERRA) Lat,Lon (TERRA) SZA (TERRA ) Distance(km) Time Diff (sec)
1 05/10/2014 06:50:47 70.45, 78.59 52.75 05/10/2014 06:51:28 70.45, 78.52 52.74 2.72 41
2 05/10/2014 07:41:43 -70.34,-113.97 127.38 05/10/2014 07:40:58 -70.33,-114.02 127.39 2.07 45
3 05/12/2014 11:34:41 70.49, 7.58 52.22 05/12/2014 11:35:47 70.51, 7.53 52.25 3.04 66
4 05/12/2014 12:25:37 -70.40, 174.98 127.88 05/12/2014 12:25:17 -70.40, 174.99 127.88 0.45 20
5 05/14/2014 16:18:48 71.21, -64.60 52.39 05/14/2014 16:19:56 71.11, -62.64 52.32 71.11 68
6 05/14/2014 17:09:31 -70.47, 103.92 128.35 05/14/2014 17:09:36 -70.45, 103.99 128.37 3.33 5
7 05/14/2014 18:00:23 69.72, -87.67 50.92 05/14/2014 17:59:14 69.74, -89.37 50.91 65.78 69
8 05/16/2014 21:53:24 -70.50, 32.93 128.83 05/16/2014 21:53:55 -70.49, 32.96 128.84 1.76 31
9 05/16/2014 22:44:28 70.35,-159.61 51.02 05/16/2014 22:43:23 70.33,-159.63 50.99 3.28 65
10 05/19/2014 02:37:17 -70.54, -38.07 129.28 05/19/2014 02:38:13 -70.56, -38.01 129.26 3.34 56
11 05/19/2014 03:28:21 70.37, 129.42 50.56 05/19/2014 03:27:41 70.40, 129.39 50.57 2.77 40
12 05/21/2014 07:21:17 -70.94,-109.70 129.34 05/21/2014 07:22:28 -70.78,-108.76 129.49 38.90 71
13 05/21/2014 08:12:15 70.45, 58.34
